Regional Weather Roundup
Issued by NWS Charleston, SC

Current Version | Previous Version | Text Only | Print | Product List | Glossary Off
Versions: 1 2 3 4 5 6 7 8 9 10 11 12 13 14 15 16 17 18 19 20 21 22 23 24 25 26 27 28 29 30 31 32 33 34 35 36 37 38 39 40 41 42 43 44 45 46 47 48 49 50
000 ASUS42 KCHS 171712 RWRCHS REGIONAL WEATHER ROUNDUP NATIONAL WEATHER SERVICE CHARLESTON SC 100 PM EDT THU AUG 17 2017 NOTE: "FAIR" INDICATES FEW OR NO CLOUDS BELOW 12,000 FEET WITH NO SIGNIFICANT WEATHER AND/OR OBSTRUCTIONS TO VISIBILITY. NOT ALL STATIONS ARE QUALITY CONTROLLED. USE DATA WITH CAUTION... ESPECIALLY DEWPOINT OBSERVATIONS. SCZ027-030-031-034>040-042>050-171800- ...SOUTHEAST SOUTH CAROLINA... CITY SKY/WX TMP DP RH WIND PRES REMARKS N CHARLESTON PTSUNNY 92 77 61 SW8 30.02F HX 105 WATERFRONT PRK N/A N/A N/A N/A SW5 29.88F JOHNS ISLAND PTSUNNY 95 79 59 W6G13 30.02F HX 112 PINOPOLIS N/A 90 81 74 CALM 29.95F HX 108 MONCKS CORNER FAIR 90 77 66 CALM 30.02F HX 102 SUMMERVILLE FAIR 93 75 55 S3 30.03F HX 104 BEAUFORT MCAS MOSUNNY 94 76 55 SW5 30.03F HX 106 BEAUFORT ARPT FAIR 90 75 62 W7 30.03F HX 100 HILTON HEAD IS MOSUNNY 91 81 70 S13 30.05F HX 110 WALTERBORO PTSUNNY 91 75 59 W6 30.03F HX 102 ALLENDALE NOT AVBL ...SOUTHERN MIDLANDS AND PEE DEE... CITY SKY/WX TMP DP RH WIND PRES REMARKS GEORGETOWN FAIR 91 75 59 S3 30.02F THUNDER HX 102 KINGSTREE FAIR 90 75 62 CALM 30.01F HX 100 ORANGEBURG CLOUDY 92 75 57 S6 30.03F HX 103 BARNWELL FAIR 95 77 55 W8 30.04F HX 109 AIKEN FAIR 90 75 62 W8 30.08F HX 100 MANNING FAIR 91 77 62 CALM 30.02F HX 105 COLUMBIA LGT RAIN 89 75 63 SW3 30.01F HX 99 SUMTER PTSUNNY 94 73 49 NW6 29.99F HX 103 FLORENCE MOSUNNY 94 75 54 W6 30.01F HX 105 MYRTLE BEACH MOSUNNY 88 82 84 S12 30.03F HX 108 N MYRTLE BEACH MOSUNNY 87 82 85 S7 30.02F HX 106 $$ GAZ063-065-086>088-099>101-113>116-118-119-134>141-150-171800- ...SOUTHEAST GEORGIA... CITY SKY/WX TMP DP RH WIND PRES REMARKS SAVANNAH ARPT MOSUNNY 95 75 52 NW6 30.04F HX 107 HUNTER AAF MOSUNNY 93 76 58 NW5 30.02F HX 106 FORT STEWART PTSUNNY 94 73 50 NW8 30.03F HX 103 STATESBORO CLOUDY 90 73 56 CALM 30.06F HX 98 SYLVANIA LGT RAIN 84 80 88 CALM 30.07S HX 97 CLAXTON PTSUNNY 91 74 58 W7 30.06S HX 100 ...CSRA...CENTRAL AND FAR SOUTHEAST GEORGIA... CITY SKY/WX TMP DP RH WIND PRES REMARKS THOMSON PTSUNNY 91 74 58 NW6 30.10F HX 100 AUGUSTA-BUSH PTSUNNY 95 76 53 SW7 30.02F HX 108 AUGUSTA-DANIEL PTSUNNY 93 72 50 NW9 30.05F HX 101 SWAINSBORO PTSUNNY 91 73 55 NW8 30.07F HX 100 VIDALIA PTSUNNY 91 75 59 NW8 30.07F HX 102 EASTMAN PTSUNNY 93 63 36 W5 30.09F HX 93 HAZLEHURST PTSUNNY 92 64 39 W3 30.06F HX 93 ALMA SUNNY 94 74 52 VRB7 30.06F HX 104 WAYCROSS PTSUNNY 93 70 46 NW3 30.06F HX 99 JESUP FAIR 95 70 43 W5 30.06F HX 101 BAXLEY FAIR 90 72 55 NW9 30.06F HX 96 BRUNSWICK PTSUNNY 90 72 55 W9G16 30.06F HX 96 SAINT SIMONS PTSUNNY 91 76 61 W5 30.05F HX 103 $$ SCZ027-028-034-036>038-045-046-048>050-GAZ119-141-171800- ...LAKE AND SUPPLEMENTAL COASTAL OBSERVATIONS... STATION/POSITION TIME TEMP WIND PRES WAVE SWELL AIR SEA DIR/SP/G HT/PER HT/PER/DIR (UTC) (F) (DEG/KT/KT) (MB) (FT/S) (FT/S/D) WINYAH BAY 1545 91 200/ 3 1017.0 LAKE MURRAY 1620 89 230/ 10/ 12 1015.9 ACE BASIN NERRS 1545 93 240/ 2 1017.0 FORT PULASKI 1648 90 86 310/ 6/ 7 1017.7F SAPELO ISLAND 1600 93 280/ 2 1018.0 $$ ANZ835-935-AMZ111-154-330-350-352-354-370-450-454-472-171800- ...C-MAN AND BUOY OBSERVATIONS... STATION/POSITION TIME TEMP WIND PRES WAVE SWELL AIR SEA DIR/SP/G HT/PER HT/PER/DIR (UTC) (F) (DEG/KT/KT) (MB) (FT/S) (FT/S/D) BUOY 41004 1650 84 85 240/ 6/ 8 1016.8F 2/ 5 2/230/ 5 BUOY 41008 1650 87 86 CALM / 2 1017.6F 1/ 9 2/ 90/ 9 FOLLY BEACH CMAN 1600 88 200/ 9/ 10 1017.9F CAPERS NEARSHORE 1608 86 86 210/ 8/ 10 1017.3F FRIPP NEARSHORE 1608 87 220/ 8/ 10 1017.4F STATION/POSITION TIME TEMP WIND PRES WAVE SWELL AIR SEA DIR/SP/G HT/PER HT/PER/DIR (UTC) (F) (DEG/KT/KT) (MB) (FT/S) (FT/S/D) 5E ST. MARYS GA 1630 87 N/A 1/ 8 FRYING PAN BUOY 1650 84 84 200/ 6/ 6 1016.9F 1/ 7 2/ 70/ 7 BUOY 41025 1650 80 83 30/ 4/ 6 1018.0S 2/ 7 2/ 80/ 7 CAPE LOOKOUT NC 1600 82 100/ 4/ 5 1017.8S BUOY 41002 1650 83 84 260/ 6/ 6 1018.1F 2/ 5 2/240/ 5 BUOY 41010 1650 85 86 270/ 4/ 6 1018.9F 2/ 7 2/ 90/ 7 ST AUGUSTINE FL 1700 85 81 110/ 10/ 10 1018.4F $$

USA.gov is the U.S. government's official web portal to all federal, state and local government web resources and services.